| time (UTC) | temp C | wind direction | speed KPH | gust KPH | rain 1hr cm | rain 24hr cm | rain mn cm | humidity % | barometer mb |
| 20260831061503 | 21 | 211 | 0.0 | 0.0 | 0.00 | 0.00 | 0.00 | 98 | 1017.0 |
| 20260831060002 | 21 | 211 | 0.0 | 1.6 | 0.00 | 0.00 | 0.00 | 99 | 1017.1 |
| 20260831054603 | 21 | 211 | 0.0 | 0.0 | 0.00 | 0.00 | 0.00 | 98 | 1017.1 |
| 20260831053158 | 21 | 210 | 0.0 | 0.0 | 0.00 | 0.00 | 0.00 | 98 | 1017.2 |
| 20260831051554 | 21 | 210 | 0.0 | 0.0 | 0.00 | 0.00 | 0.00 | 99 | 1017.3 |
| 20260831050049 | 21 | 210 | 0.0 | 0.0 | 0.00 | 0.00 | 0.00 | 98 | 1017.2 |
| 20260831044554 | 21 | 210 | 0.0 | 0.0 | 0.00 | 0.00 | 0.00 | 98 | 1017.2 |
| 20260831043048 | 22 | 210 | 0.0 | 0.0 | 0.00 | 0.00 | 0.00 | 98 | 1017.3 |
| 20260831041517 | 22 | 209 | 0.0 | 0.0 | 0.00 | 0.00 | 0.00 | 98 | 1017.4 |
| 20260831040021 | 22 | 209 | 0.0 | 0.0 | 0.00 | 0.00 | 0.00 | 98 | 1017.5 |
| 20260831034519 | 22 | 209 | 0.0 | 0.0 | 0.00 | 0.00 | 0.00 | 98 | 1017.5 |
| 20260831033114 | 22 | 209 | 0.0 | 0.0 | 0.00 | 0.00 | 0.00 | 98 | 1017.5 |
| 20260831031518 | 22 | 209 | 0.0 | 3.2 | 0.00 | 0.00 | 0.00 | 98 | 1017.4 |
| 20260831030013 | 22 | 209 | 0.0 | 0.0 | 0.00 | 0.00 | 0.00 | 98 | 1017.4 |
| 20260831024512 | 22 | 209 | 0.0 | 0.0 | 0.00 | 0.00 | 0.00 | 98 | 1017.4 |
| 20260831023013 | 22 | 209 | 0.0 | 0.0 | 0.00 | 0.00 | 0.00 | 98 | 1017.3 |
| 20260831021509 | 22 | 209 | 0.0 | 0.0 | 0.00 | 0.00 | 0.00 | 98 | 1017.2 |
| 20260831020009 | 22 | 209 | 0.0 | 0.0 | 0.00 | 0.00 | 0.00 | 97 | 1017.2 |
| 20260831014509 | 22 | 207 | 0.0 | 3.2 | 0.00 | 0.00 | 0.00 | 97 | 1017.2 |
| 20260831013008 | 23 | 205 | 0.0 | 0.0 | 0.00 | 0.00 | 0.00 | 97 | 1017.2 |
| 20260831011509 | 23 | 205 | 0.0 | 3.2 | 0.00 | 0.00 | 0.00 | 97 | 1017.3 |
| 20260831010009 | 23 | 205 | 0.0 | 1.6 | 0.00 | 0.00 | 0.00 | 96 | 1017.0 |
| 20260831004600 | 23 | 205 | 0.0 | 0.0 | 0.00 | 0.00 | 0.00 | 96 | 1016.8 |
| 20260831003100 | 23 | 204 | 0.0 | 0.0 | 0.00 | 0.00 | 0.00 | 95 | 1016.5 |
| 20260831001606 | 24 | 203 | 0.0 | 0.0 | 0.00 | 0.00 | 0.00 | 95 | 1016.7 |
| 20260830234556 | 25 | 203 | 0.0 | 0.0 | 0.00 | 0.00 | 0.00 | 93 | 1016.3 |
| 20260830233105 | 26 | 200 | 0.0 | 0.0 | 0.00 | 0.00 | 0.00 | 92 | 1016.1 |
| 20260830231604 | 26 | 200 | 0.0 | 0.0 | 0.00 | 0.00 | 0.00 | 92 | 1015.9 |
| 20260830230056 | 25 | 200 | 0.0 | 0.0 | 0.00 | 0.00 | 0.00 | 92 | 1015.7 |
| 20260830224610 | 26 | 197 | 0.0 | 0.0 | 0.00 | 0.00 | 0.00 | 92 | 1015.8 |
| 20260830223055 | 26 | 196 | 0.0 | 0.0 | 0.00 | 0.00 | 0.00 | 91 | 1015.8 |
| 20260830221601 | 25 | 196 | 0.0 | 1.6 | 0.00 | 0.00 | 0.00 | 92 | 1016.1 |
| 20260830220055 | 25 | 194 | 0.0 | 3.2 | 0.00 | 0.00 | 0.00 | 92 | 1016.4 |
| 20260830214555 | 25 | 194 | 0.0 | 6.4 | 0.00 | 0.00 | 0.00 | 92 | 1016.5 |
| 20260830213047 | 26 | 189 | 3.2 | 8.0 | 0.00 | 0.00 | 0.00 | 90 | 1016.4 |
| 20260830211545 | 26 | 188 | 3.2 | 4.8 | 0.00 | 0.00 | 0.00 | 88 | 1016.6 |
| 20260830210044 | 26 | 188 | 4.8 | 6.4 | 0.00 | 0.00 | 0.00 | 87 | 1016.6 |
| 20260830204540 | 26 | 179 | 3.2 | 8.0 | 0.00 | 0.00 | 0.00 | 87 | 1016.5 |
| 20260830203038 | 26 | 153 | 3.2 | 11.3 | 0.00 | 0.00 | 0.00 | 88 | 1016.9 |
| 20260830201541 | 26 | 180 | 0.0 | 6.4 | 0.00 | 0.00 | 0.00 | 93 | 1017.3 |
| 20260830200037 | 24 | 196 | 0.0 | 0.0 | 0.00 | 0.00 | 0.00 | 94 | 1017.0 |
| 20260830194533 | 23 | 196 | 0.0 | 0.0 | 0.00 | 0.00 | 0.00 | 95 | 1017.3 |
| 20260830193032 | 22 | 197 | 8.0 | 12.9 | 0.00 | 0.00 | 0.00 | 94 | 1017.5 |
| 20260830191530 | 22 | 142 | 1.6 | 14.5 | 0.00 | 0.00 | 0.00 | 91 | 1018.5 |
| 20260830190032 | 23 | 84 | 6.4 | 20.9 | 0.00 | 0.00 | 0.00 | 88 | 1018.2 |
| 20260830184527 | 26 | 190 | 17.7 | 33.8 | 0.00 | 0.00 | 0.00 | 74 | 1017.7 |
| 20260830183027 | 31 | 144 | 9.7 | 19.3 | 0.00 | 0.00 | 0.00 | 64 | 1017.9 |
| 20260830181526 | 31 | 67 | 8.0 | 11.3 | 0.00 | 0.00 | 0.00 | 64 | 1017.7 |
| 20260830180024 | 32 | 66 | 6.4 | 9.7 | 0.00 | 0.00 | 0.00 | 64 | 1017.9 |
| 20260830174519 | 31 | 102 | 3.2 | 17.7 | 0.00 | 0.00 | 0.00 | 67 | 1018.2 |
| 20260830173017 | 31 | 75 | 3.2 | 16.1 | 0.00 | 0.00 | 0.00 | 67 | 1018.5 |
| 20260830171515 | 30 | 329 | 8.0 | 19.3 | 0.00 | 0.00 | 0.00 | 70 | 1018.7 |
| 20260830170014 | 30 | 28 | 6.4 | 16.1 | 0.00 | 0.00 | 0.00 | 71 | 1018.8 |
| 20260830164613 | 30 | 78 | 8.0 | 16.1 | 0.00 | 0.00 | 0.00 | 71 | 1019.0 |
| 20260830163039 | 30 | 19 | 11.3 | 20.9 | 0.00 | 0.00 | 0.00 | 71 | 1019.0 |
| 20260830161539 | 30 | 86 | 11.3 | 17.7 | 0.00 | 0.00 | 0.00 | 72 | 1019.2 |
| 20260830160033 | 29 | 40 | 9.7 | 22.5 | 0.00 | 0.00 | 0.00 | 74 | 1019.1 |
| 20260830154533 | 29 | 29 | 11.3 | 17.7 | 0.00 | 0.00 | 0.00 | 73 | 1019.2 |
| 20260830153032 | 28 | 5 | 11.3 | 22.5 | 0.00 | 0.00 | 0.00 | 74 | 1019.1 |
| 20260830151526 | 28 | 58 | 9.7 | 22.5 | 0.00 | 0.00 | 0.00 | 75 | 1019.3 |
| 20260830150021 | 28 | 46 | 4.8 | 14.5 | 0.00 | 0.00 | 0.00 | 77 | 1019.1 |
| 20260830144517 | 27 | 35 | 9.7 | 16.1 | 0.00 | 0.00 | 0.00 | 78 | 1019.1 |
| 20260830143014 | 26 | 46 | 9.7 | 14.5 | 0.00 | 0.00 | 0.00 | 80 | 1019.0 |
| 20260830141518 | 26 | 301 | 1.6 | 8.0 | 0.00 | 0.00 | 0.00 | 83 | 1018.9 |
| 20260830140044 | 25 | 310 | 3.2 | 11.3 | 0.00 | 0.00 | 0.00 | 86 | 1018.8 |
| 20260830134541 | 24 | 320 | 0.0 | 9.7 | 0.00 | 0.00 | 0.00 | 88 | 1018.9 |
| 20260830133025 | 23 | 311 | 6.4 | 11.3 | 0.00 | 0.00 | 0.00 | 95 | 1018.9 |
| 20260830131522 | 21 | 304 | 3.2 | 9.7 | 0.00 | 0.00 | 0.00 | 99 | 1018.8 |
| 20260830130018 | 21 | 223 | 0.0 | 6.4 | 0.00 | 0.00 | 0.00 | 99 | 1018.9 |
| 20260830124513 | 20 | 225 | 0.0 | 3.2 | 0.00 | 0.00 | 0.00 | 99 | 1018.7 |
| 20260830123010 | 19 | 225 | 1.6 | 3.2 | 0.00 | 0.00 | 0.00 | 99 | 1018.9 |
| 20260830121508 | 19 | 225 | 0.0 | 1.6 | 0.00 | 0.00 | 0.00 | 99 | 1018.9 |
| 20260830120010 | 18 | 225 | 0.0 | 6.4 | 0.00 | 0.00 | 0.00 | 99 | 1018.7 |
| 20260830114507 | 18 | 223 | 0.0 | 0.0 | 0.00 | 0.00 | 0.00 | 99 | 1018.7 |
| 20260830113004 | 17 | 223 | 1.6 | 3.2 | 0.00 | 0.00 | 0.00 | 99 | 1018.7 |
| 20260830111503 | 17 | 223 | 0.0 | 6.4 | 0.00 | 0.00 | 0.00 | 99 | 1018.5 |
| 20260830110001 | 17 | 223 | 0.0 | 0.0 | 0.00 | 0.00 | 0.00 | 98 | 1018.4 |
| 20260830104501 | 17 | 223 | 0.0 | 0.0 | 0.00 | 0.00 | 0.00 | 98 | 1018.3 |
| 20260830103036 | 18 | 223 | 0.0 | 0.0 | 0.00 | 0.00 | 0.00 | 98 | 1018.3 |
| 20260830101529 | 18 | 223 | 0.0 | 0.0 | 0.00 | 0.00 | 0.00 | 98 | 1018.4 |
| 20260830100059 | 18 | 223 | 0.0 | 0.0 | 0.00 | 0.00 | 0.00 | 98 | 1018.3 |
| 20260830094559 | 18 | 223 | 0.0 | 0.0 | 0.00 | 0.00 | 0.00 | 98 | 1018.5 |
| 20260830093107 | 18 | 223 | 0.0 | 3.2 | 0.00 | 0.00 | 0.00 | 98 | 1018.4 |
| 20260830091557 | 18 | 223 | 0.0 | 3.2 | 0.00 | 0.00 | 0.00 | 98 | 1018.3 |
| 20260830090057 | 18 | 222 | 0.0 | 3.2 | 0.00 | 0.00 | 0.00 | 98 | 1018.3 |
| 20260830084602 | 18 | 222 | 0.0 | 0.0 | 0.00 | 0.00 | 0.00 | 98 | 1018.3 |
| 20260830083049 | 18 | 222 | 0.0 | 3.2 | 0.00 | 0.00 | 0.00 | 98 | 1018.1 |
| 20260830081558 | 18 | 219 | 0.0 | 0.0 | 0.00 | 0.00 | 0.00 | 98 | 1018.1 |
| 20260830080048 | 18 | 217 | 0.0 | 0.0 | 0.00 | 0.00 | 0.00 | 98 | 1018.1 |
| 20260830074554 | 18 | 217 | 0.0 | 0.0 | 0.00 | 0.00 | 0.00 | 98 | 1018.2 |
| 20260830073016 | 18 | 217 | 0.0 | 0.0 | 0.00 | 0.00 | 0.00 | 98 | 1018.0 |
| 20260830071515 | 18 | 217 | 0.0 | 0.0 | 0.00 | 0.00 | 0.00 | 98 | 1018.1 |
| 20260830070011 | 19 | 217 | 0.0 | 0.0 | 0.00 | 0.00 | 0.00 | 97 | 1018.1 |
| 20260830064509 | 19 | 217 | 0.0 | 0.0 | 0.00 | 0.00 | 0.00 | 97 | 1018.2 |
| 20260830063017 | 19 | 217 | 0.0 | 0.0 | 0.00 | 0.00 | 0.00 | 97 | 1018.2 |